Meteo Giornale » Osservazioni meteo Gran Bretagna » Belfast-Aldergrove

ore: 20:20 - Osservazioni Meteo Belfast-Aldergrove
Lat. 54° 39' N Lon. 6° 13' W Alt. 81 metri s.l.m.

nuvoloso

15 °C

Nuvoloso

Temp. 24 Ore

13 °C

17 °C

Ovest/Sud-Ovest

9.3 Km/h

Dew point 14 °C

Umidità 93 %

Visibilità  10 Km

Il sole sorge alle ore 06:32

Il sole tramonta alle ore 20:17

Data e Ora Cielo e Fenomeni T °C DP °C Um. % Pres. hPa Vis. km Vento km/h
Oggi h: 20:20 nuvoloso Nuvoloso 15 14 93 1015 10 O/SO 9.3
Oggi h: 19:50 coperto_pioggia Pioggia 15 15 100 1015 5 O/SO 16.7
Oggi h: 19:20 coperto_pioggia Pioggia 16 15 93 1015 5 O/SO 13
Oggi h: 18:50 coperto_pioggia Pioggia 16 15 93 1015 10 O/SO 18.5
Oggi h: 18:20 coperto_pioggia Pioviggine 16 15 93 1015 10 SO 13
Oggi h: 17:50 coperto_pioggia Pioggia 15 15 100 1015 6 O/SO 16.7
Oggi h: 17:20 coperto_pioggia Pioggia 16 15 93 1015 4 O/SO 14.8
Oggi h: 16:50 coperto_pioggia Pioggia 16 15 93 1015 4 O/SO 13
Oggi h: 16:20 coperto_pioggia Pioggia Foschia 16 15 93 1015 4 O 18.5
Oggi h: 15:50 coperto_pioggia Pioggia 16 15 93 1015 4 O/SO 13
Oggi h: 15:20 nuvoloso Nuvoloso 16 14 87 1015 10 O/SO 20.3
Oggi h: 14:50 nuvoloso precipitazioni 16 14 87 1015 10 O/SO 25.9
Oggi h: 14:20 coperto_pioggia Pioggia 16 15 93 1015 2 O 25.9
Oggi h: 13:50 coperto Coperto 17 14 82 1015 10 O/SO 18.5
Oggi h: 13:20 molto_nuvoloso Molto Nuvoloso 17 14 82 1014 10 SO 24
Oggi h: 12:50 nuvoloso Nuvoloso 17 14 82 1014 10 O/SO 22.2
Oggi h: 12:20 molto_nuvoloso Molto Nuvoloso 17 14 82 1015 10 SO 20.3
Oggi h: 11:50 poco_nuvoloso Poco Nuvoloso 16 14 87 1015 10 SO 18.5
Oggi h: 11:20 coperto_pioggia Pioviggine 16 14 87 1014 10 O/SO 22.2
Oggi h: 10:50 molto_nuvoloso Molto Nuvoloso 16 13 82 1014 10 O/SO 24
Oggi h: 10:20 molto_nuvoloso Molto Nuvoloso 15 13 87 1014 10 O/SO 24
Oggi h: 09:50 coperto_pioggia Pioviggine 15 13 87 1014 4 SO 24
Oggi h: 09:20 molto_nuvoloso Molto Nuvoloso 15 13 87 1014 10 SO 24
Oggi h: 08:50 nuvoloso Nuvoloso 15 13 87 1014 10 SO 24
Oggi h: 08:20 molto_nuvoloso Molto Nuvoloso 15 13 87 1014 10 SO 20.3
Oggi h: 07:50 nuvoloso Nuvoloso 14 13 93 1014 10 SO 18.5
Oggi h: 07:20 molto_nuvoloso Molto Nuvoloso 14 12 87 1014 10 SO 16.7
Oggi h: 06:50 molto_nuvoloso Molto Nuvoloso 14 12 87 1014 10 SO 22.2
Oggi h: 06:20 molto_nuvoloso Molto Nuvoloso 14 12 87 1014 10 SO 18.5
Oggi h: 05:50 nuvoloso Nuvoloso 14 12 87 1014 10 SO 13
Oggi h: 05:20 nuvoloso Nuvoloso 14 12 87 1014 10 SO 16.7
Oggi h: 04:50 coperto_pioggia Pioggia 14 12 87 1014 10 SO 18.5
Oggi h: 04:20 nuvoloso Nuvoloso 13 12 93 1014 10 SO 18.5
Oggi h: 03:50 molto_nuvoloso Molto Nuvoloso 13 12 93 1014 10 SO 18.5
Oggi h: 03:20 molto_nuvoloso Molto Nuvoloso 13 12 93 1015 10 SO 20.3
Oggi h: 02:50 molto_nuvoloso Molto Nuvoloso 13 12 93 1015 10 S/SO 13
Oggi h: 02:20 nuvoloso Nuvoloso 13 12 93 1015 10 SO 13
Oggi h: 01:50 poco_nuvoloso Poco Nuvoloso 14 12 87 1015 10 SO 16.7
Oggi h: 01:20 sereno Sereno 14 12 87 1015 10 SO 18.5
Oggi h: 00:50 sereno Sereno 14 12 87 1015 10 SO 18.5
Oggi h: 00:20 nuvoloso Nuvoloso 14 12 87 1015 10 SO 18.5
Ieri h: 23:50 molto_nuvoloso Molto Nuvoloso 14 11 82 1016 10 O/SO 20.3
Ieri h: 23:20 molto_nuvoloso Molto Nuvoloso 14 11 82 1016 10 O/SO 18.5
Ieri h: 22:50 molto_nuvoloso Molto Nuvoloso 13 12 93 1016 10 SO 11.1
Ieri h: 22:20 nuvoloso Nuvoloso 13 12 93 1016 10 SO 9.3
Ieri h: 21:50 nuvoloso Nuvoloso 13 12 93 1016 10 SO 11.1
Ieri h: 21:20 coperto_pioggia Pioviggine 13 12 93 1016 10 SO 11.1
Ieri h: 20:50 coperto_pioggia Pioggia 14 12 87 1016 10 O 24